| time (UTC) | temp F | wind direction | speed knots | gust knots | rain 1hr in | rain 24hr in | rain mn in | humidity % | barometer mb |
| 20260509185558 | 82 | 60 | 1.7 | 12.2 | 0.00 | 0.00 | 0.00 | 79 | 1010.7 |
| 20260509185057 | 82 | 86 | 6.1 | 12.2 | 0.00 | 0.00 | 0.00 | 79 | 1010.7 |
| 20260509184603 | 82 | 78 | 3.5 | 9.6 | 0.00 | 0.00 | 0.00 | 79 | 1010.5 |
| 20260509184057 | 82 | 43 | 4.3 | 9.6 | 0.00 | 0.00 | 0.00 | 79 | 1010.4 |
| 20260509183557 | 82 | 95 | 4.3 | 9.6 | 0.00 | 0.00 | 0.00 | 79 | 1010.4 |
| 20260509183059 | 82 | 62 | 4.3 | 10.4 | 0.00 | 0.00 | 0.00 | 80 | 1010.4 |
| 20260509182558 | 82 | 87 | 6.1 | 10.4 | 0.00 | 0.00 | 0.00 | 79 | 1010.4 |
| 20260509182057 | 82 | 85 | 4.3 | 13.0 | 0.00 | 0.00 | 0.00 | 79 | 1010.3 |
| 20260509181621 | 82 | 76 | 5.2 | 13.0 | 0.00 | 0.00 | 0.00 | 79 | 1010.3 |
| 20260509181055 | 82 | 99 | 9.6 | 13.9 | 0.00 | 0.00 | 0.00 | 79 | 1010.3 |
| 20260509180558 | 82 | 90 | 9.6 | 13.9 | 0.00 | 0.00 | 0.00 | 79 | 1010.2 |
| 20260509180055 | 82 | 92 | 6.1 | 10.4 | 0.00 | 0.00 | 0.00 | 80 | 1010.2 |
| 20260509175555 | 82 | 82 | 7.0 | 10.4 | 0.00 | 0.01 | 0.00 | 79 | 1010.2 |
| 20260509175058 | 82 | 94 | 7.8 | 13.0 | 0.00 | 0.01 | 0.00 | 79 | 1010.2 |
| 20260509174602 | 82 | 61 | 7.8 | 13.0 | 0.00 | 0.01 | 0.00 | 79 | 1010.2 |
| 20260509174058 | 82 | 85 | 8.7 | 13.0 | 0.00 | 0.01 | 0.00 | 79 | 1010.2 |
| 20260509173557 | 82 | 61 | 9.6 | 13.0 | 0.00 | 0.01 | 0.00 | 79 | 1010.1 |
| 20260509173105 | 82 | 98 | 6.1 | 10.4 | 0.00 | 0.01 | 0.00 | 79 | 1010.0 |
| 20260509172557 | 82 | 76 | 5.2 | 10.4 | 0.00 | 0.01 | 0.00 | 79 | 1010.0 |
| 20260509172100 | 82 | 72 | 5.2 | 10.4 | 0.00 | 0.01 | 0.00 | 79 | 1010.0 |
| 20260509171558 | 82 | 77 | 4.3 | 15.6 | 0.00 | 0.01 | 0.00 | 79 | 1010.0 |
| 20260509171057 | 82 | 98 | 7.0 | 15.6 | 0.00 | 0.01 | 0.00 | 79 | 1010.0 |
| 20260509170557 | 82 | 58 | 8.7 | 15.6 | 0.00 | 0.01 | 0.00 | 78 | 1010.0 |
| 20260509170059 | 82 | 98 | 7.8 | 12.2 | 0.00 | 0.01 | 0.00 | 79 | 1010.0 |
| 20260509165557 | 82 | 75 | 6.1 | 13.0 | 0.00 | 0.01 | 0.00 | 79 | 1010.1 |
| 20260509165100 | 82 | 73 | 5.2 | 13.0 | 0.00 | 0.01 | 0.00 | 79 | 1010.2 |
| 20260509164557 | 82 | 81 | 7.0 | 13.0 | 0.00 | 0.01 | 0.00 | 79 | 1010.3 |
| 20260509164057 | 82 | 80 | 2.6 | 14.8 | 0.00 | 0.01 | 0.00 | 79 | 1010.4 |
| 20260509163554 | 82 | 82 | 7.8 | 14.8 | 0.00 | 0.01 | 0.00 | 79 | 1010.3 |
| 20260509163059 | 82 | 82 | 6.1 | 12.2 | 0.00 | 0.01 | 0.00 | 79 | 1010.4 |
| 20260509162559 | 82 | 76 | 5.2 | 13.0 | 0.00 | 0.01 | 0.00 | 79 | 1010.4 |
| 20260509162102 | 82 | 72 | 7.8 | 13.0 | 0.00 | 0.01 | 0.00 | 79 | 1010.4 |
| 20260509161603 | 82 | 103 | 6.1 | 11.3 | 0.00 | 0.01 | 0.00 | 79 | 1010.5 |
| 20260509161058 | 82 | 67 | 7.0 | 11.3 | 0.00 | 0.01 | 0.00 | 79 | 1010.6 |
| 20260509160602 | 82 | 86 | 6.1 | 13.9 | 0.00 | 0.01 | 0.00 | 79 | 1010.5 |
| 20260509160100 | 82 | 360 | 8.7 | 13.9 | 0.00 | 0.01 | 0.00 | 79 | 1010.6 |
| 20260509155557 | 82 | 59 | 6.1 | 13.9 | 0.00 | 0.01 | 0.00 | 78 | 1010.5 |
| 20260509155057 | 82 | 68 | 7.8 | 13.9 | 0.00 | 0.01 | 0.00 | 78 | 1010.6 |
| 20260509154559 | 82 | 92 | 7.8 | 13.9 | 0.00 | 0.01 | 0.00 | 78 | 1010.7 |
| 20260509154058 | 82 | 66 | 6.1 | 11.3 | 0.00 | 0.01 | 0.00 | 78 | 1010.7 |
| 20260509153558 | 82 | 360 | 6.1 | 11.3 | 0.00 | 0.01 | 0.00 | 78 | 1010.7 |
| 20260509153056 | 82 | 360 | 7.8 | 11.3 | 0.00 | 0.01 | 0.00 | 78 | 1010.7 |
| 20260509152558 | 82 | 80 | 5.2 | 13.0 | 0.00 | 0.01 | 0.00 | 78 | 1010.7 |
| 20260509152100 | 82 | 67 | 7.0 | 13.9 | 0.00 | 0.01 | 0.00 | 78 | 1010.9 |
| 20260509151604 | 82 | 78 | 10.4 | 13.9 | 0.00 | 0.01 | 0.00 | 77 | 1010.9 |
| 20260509151057 | 82 | 76 | 7.0 | 13.9 | 0.00 | 0.01 | 0.00 | 77 | 1011.0 |
| 20260509150558 | 82 | 360 | 8.7 | 13.9 | 0.00 | 0.01 | 0.00 | 77 | 1011.0 |
| 20260509150057 | 82 | 89 | 6.1 | 13.0 | 0.00 | 0.01 | 0.00 | 77 | 1011.1 |
| 20260509145559 | 82 | 88 | 7.0 | 13.0 | 0.00 | 0.01 | 0.00 | 78 | 1011.1 |
| 20260509145058 | 82 | 83 | 6.1 | 13.0 | 0.00 | 0.01 | 0.00 | 78 | 1011.1 |
| 20260509144610 | 82 | 360 | 6.1 | 13.0 | 0.00 | 0.01 | 0.00 | 78 | 1011.1 |
| 20260509144100 | 82 | 95 | 6.1 | 13.0 | 0.00 | 0.01 | 0.00 | 77 | 1011.1 |
| 20260509143558 | 82 | 360 | 8.7 | 13.9 | 0.00 | 0.01 | 0.00 | 77 | 1011.2 |
| 20260509143124 | 82 | 127 | 8.7 | 13.9 | 0.00 | 0.01 | 0.00 | 77 | 1011.2 |
| 20260509142555 | 82 | 78 | 7.0 | 13.9 | 0.00 | 0.01 | 0.00 | 77 | 1011.3 |
| 20260509142102 | 82 | 71 | 7.8 | 13.9 | 0.00 | 0.01 | 0.00 | 77 | 1011.3 |
| 20260509141558 | 82 | 36 | 5.2 | 12.2 | 0.00 | 0.01 | 0.00 | 77 | 1011.4 |
| 20260509141058 | 82 | 85 | 7.0 | 12.2 | 0.00 | 0.01 | 0.00 | 77 | 1011.5 |
| 20260509140557 | 82 | 98 | 7.0 | 12.2 | 0.00 | 0.01 | 0.00 | 77 | 1011.7 |
| 20260509140106 | 82 | 85 | 7.8 | 12.2 | 0.00 | 0.01 | 0.00 | 77 | 1011.7 |
| 20260509135600 | 82 | 63 | 5.2 | 11.3 | 0.00 | 0.02 | 0.01 | 77 | 1011.7 |
| 20260509135057 | 82 | 85 | 7.8 | 12.2 | 0.00 | 0.02 | 0.01 | 78 | 1011.9 |
| 20260509134612 | 82 | 65 | 7.0 | 12.2 | 0.00 | 0.02 | 0.01 | 78 | 1011.9 |
| 20260509134059 | 82 | 92 | 8.7 | 12.2 | 0.00 | 0.02 | 0.01 | 78 | 1012.0 |
| 20260509133554 | 82 | 47 | 6.1 | 11.3 | 0.00 | 0.02 | 0.01 | 78 | 1012.0 |
| 20260509133056 | 83 | 88 | 4.3 | 11.3 | 0.00 | 0.02 | 0.01 | 77 | 1012.1 |
| 20260509132558 | 83 | 60 | 7.0 | 13.9 | 0.00 | 0.02 | 0.01 | 77 | 1012.2 |
| 20260509132100 | 82 | 92 | 7.8 | 13.9 | 0.00 | 0.02 | 0.01 | 77 | 1012.3 |
| 20260509131556 | 82 | 93 | 6.1 | 12.2 | 0.00 | 0.02 | 0.01 | 77 | 1012.3 |
| 20260509131057 | 83 | 51 | 6.1 | 10.4 | 0.00 | 0.02 | 0.01 | 77 | 1012.3 |
| 20260509130557 | 83 | 61 | 4.3 | 13.0 | 0.00 | 0.02 | 0.01 | 78 | 1012.4 |
| 20260509130101 | 83 | 90 | 6.1 | 13.0 | 0.00 | 0.02 | 0.01 | 77 | 1012.3 |
| 20260509125557 | 83 | 80 | 7.0 | 15.6 | 0.00 | 0.02 | 0.01 | 77 | 1012.3 |
| 20260509125058 | 83 | 63 | 5.2 | 15.6 | 0.00 | 0.02 | 0.01 | 77 | 1012.3 |
| 20260509124557 | 83 | 84 | 7.8 | 13.9 | 0.00 | 0.02 | 0.01 | 76 | 1012.3 |
| 20260509124058 | 83 | 360 | 8.7 | 13.9 | 0.00 | 0.02 | 0.01 | 76 | 1012.3 |
| 20260509123558 | 83 | 59 | 5.2 | 13.0 | 0.00 | 0.02 | 0.01 | 76 | 1012.3 |
| 20260509123127 | 83 | 65 | 6.1 | 13.0 | 0.00 | 0.02 | 0.01 | 76 | 1012.2 |
| 20260509122555 | 83 | 89 | 7.8 | 13.9 | 0.00 | 0.02 | 0.01 | 76 | 1012.2 |
| 20260509122057 | 83 | 74 | 6.1 | 13.9 | 0.00 | 0.02 | 0.01 | 76 | 1012.2 |
| 20260509121612 | 83 | 360 | 6.1 | 13.9 | 0.00 | 0.02 | 0.01 | 75 | 1012.2 |
| 20260509121056 | 83 | 360 | 7.0 | 13.0 | 0.00 | 0.02 | 0.01 | 76 | 1012.1 |
| 20260509120556 | 83 | 360 | 8.7 | 13.0 | 0.00 | 0.02 | 0.01 | 76 | 1012.1 |
| 20260509120113 | 83 | 90 | 5.2 | 13.0 | 0.00 | 0.02 | 0.01 | 76 | 1012.1 |
| 20260509115557 | 83 | 84 | 6.1 | 12.2 | 0.00 | 0.02 | 0.01 | 76 | 1012.1 |
| 20260509115057 | 83 | 95 | 7.0 | 12.2 | 0.00 | 0.02 | 0.01 | 76 | 1012.1 |
| 20260509114602 | 83 | 88 | 7.0 | 12.2 | 0.00 | 0.02 | 0.01 | 76 | 1012.1 |
| 20260509114058 | 83 | 360 | 7.0 | 13.0 | 0.00 | 0.02 | 0.01 | 76 | 1012.1 |
| 20260509113556 | 83 | 82 | 7.8 | 15.6 | 0.00 | 0.02 | 0.01 | 75 | 1012.2 |
| 20260509113103 | 83 | 62 | 7.0 | 15.6 | 0.00 | 0.02 | 0.01 | 76 | 1012.1 |
| 20260509112557 | 83 | 98 | 9.6 | 15.6 | 0.00 | 0.02 | 0.01 | 76 | 1012.1 |
| 20260509112058 | 83 | 74 | 7.8 | 14.8 | 0.00 | 0.02 | 0.01 | 77 | 1012.1 |
| 20260509111608 | 83 | 79 | 7.8 | 14.8 | 0.00 | 0.02 | 0.01 | 77 | 1012.0 |
| 20260509111059 | 83 | 98 | 3.5 | 15.6 | 0.00 | 0.02 | 0.01 | 77 | 1012.0 |
| 20260509110557 | 83 | 76 | 7.0 | 15.6 | 0.00 | 0.02 | 0.01 | 77 | 1012.0 |
| 20260509110106 | 83 | 126 | 8.7 | 14.8 | 0.00 | 0.02 | 0.01 | 76 | 1011.9 |
| 20260509105557 | 83 | 360 | 4.3 | 12.2 | 0.00 | 0.02 | 0.01 | 76 | 1012.0 |
| 20260509105058 | 83 | 76 | 7.0 | 14.8 | 0.00 | 0.02 | 0.01 | 76 | 1011.9 |
| 20260509104600 | 83 | 360 | 7.8 | 14.8 | 0.00 | 0.02 | 0.01 | 76 | 1011.8 |
| 20260509104058 | 83 | 360 | 7.8 | 15.6 | 0.00 | 0.02 | 0.01 | 76 | 1011.8 |
| 20260509103557 | 83 | 94 | 9.6 | 15.6 | 0.00 | 0.02 | 0.01 | 76 | 1011.7 |
| 20260509103106 | 83 | 105 | 7.8 | 13.0 | 0.00 | 0.02 | 0.01 | 76 | 1011.7 |
| 20260509102557 | 83 | 101 | 7.8 | 13.0 | 0.00 | 0.02 | 0.01 | 76 | 1011.7 |
| 20260509102058 | 83 | 94 | 5.2 | 11.3 | 0.00 | 0.02 | 0.01 | 76 | 1011.7 |
| 20260509101624 | 83 | 67 | 7.0 | 14.8 | 0.00 | 0.02 | 0.01 | 75 | 1011.7 |
| 20260509101058 | 83 | 103 | 9.6 | 14.8 | 0.00 | 0.02 | 0.01 | 75 | 1011.6 |
| 20260509100558 | 83 | 84 | 6.1 | 13.9 | 0.00 | 0.02 | 0.01 | 76 | 1011.5 |
| 20260509100059 | 83 | 360 | 6.1 | 15.6 | 0.00 | 0.02 | 0.01 | 76 | 1011.5 |
| 20260509095558 | 83 | 55 | 7.0 | 15.6 | 0.00 | 0.02 | 0.01 | 76 | 1011.4 |
| 20260509095057 | 83 | 88 | 5.2 | 13.9 | 0.00 | 0.02 | 0.01 | 76 | 1011.4 |
| 20260509094604 | 83 | 65 | 7.8 | 13.9 | 0.00 | 0.02 | 0.01 | 76 | 1011.4 |
| 20260509094057 | 83 | 78 | 8.7 | 13.9 | 0.00 | 0.02 | 0.01 | 76 | 1011.3 |
| 20260509093557 | 83 | 71 | 7.0 | 13.0 | 0.00 | 0.02 | 0.01 | 76 | 1011.3 |
| 20260509093106 | 83 | 117 | 6.1 | 13.0 | 0.00 | 0.02 | 0.01 | 75 | 1011.2 |
| 20260509092557 | 83 | 87 | 7.0 | 16.5 | 0.00 | 0.02 | 0.01 | 75 | 1011.2 |
| 20260509092057 | 83 | 80 | 7.0 | 16.5 | 0.00 | 0.02 | 0.01 | 75 | 1011.1 |
| 20260509091604 | 83 | 72 | 6.1 | 13.0 | 0.00 | 0.02 | 0.01 | 75 | 1011.1 |
| 20260509091058 | 83 | 86 | 6.1 | 13.9 | 0.00 | 0.02 | 0.01 | 75 | 1011.0 |
| 20260509090557 | 83 | 360 | 7.8 | 13.9 | 0.00 | 0.02 | 0.01 | 76 | 1011.0 |
| 20260509085557 | 83 | 92 | 7.0 | 13.9 | 0.00 | 0.02 | 0.01 | 76 | 1011.1 |
| 20260509085057 | 83 | 72 | 7.0 | 13.9 | 0.00 | 0.02 | 0.01 | 75 | 1011.1 |
| 20260509084558 | 83 | 88 | 8.7 | 13.9 | 0.00 | 0.02 | 0.01 | 75 | 1011.1 |
| 20260509084057 | 83 | 111 | 7.8 | 17.4 | 0.00 | 0.02 | 0.01 | 75 | 1011.1 |
| 20260509083556 | 83 | 95 | 7.8 | 17.4 | 0.00 | 0.02 | 0.01 | 74 | 1011.0 |
| 20260509083059 | 84 | 74 | 9.6 | 17.4 | 0.00 | 0.02 | 0.01 | 74 | 1010.9 |
| 20260509082557 | 84 | 61 | 7.0 | 12.2 | 0.00 | 0.02 | 0.01 | 74 | 1010.9 |
| 20260509082058 | 84 | 77 | 6.1 | 12.2 | 0.00 | 0.02 | 0.01 | 74 | 1010.8 |
| 20260509081610 | 84 | 78 | 7.8 | 12.2 | 0.00 | 0.02 | 0.01 | 74 | 1010.8 |
| 20260509081058 | 84 | 78 | 7.8 | 15.6 | 0.00 | 0.02 | 0.01 | 74 | 1010.8 |
| 20260509080557 | 84 | 67 | 10.4 | 15.6 | 0.00 | 0.02 | 0.01 | 74 | 1010.8 |
| 20260509080057 | 84 | 55 | 7.8 | 13.9 | 0.00 | 0.02 | 0.01 | 74 | 1010.7 |
| 20260509075557 | 84 | 94 | 7.8 | 16.5 | 0.00 | 0.02 | 0.01 | 74 | 1010.7 |
| 20260509075057 | 84 | 88 | 8.7 | 16.5 | 0.00 | 0.02 | 0.01 | 73 | 1010.7 |
| 20260509074600 | 84 | 74 | 9.6 | 16.5 | 0.00 | 0.02 | 0.01 | 72 | 1010.7 |
| 20260509074057 | 84 | 98 | 10.4 | 14.8 | 0.00 | 0.02 | 0.01 | 73 | 1010.5 |
| 20260509073559 | 85 | 69 | 7.8 | 17.4 | 0.00 | 0.02 | 0.01 | 72 | 1010.4 |
| 20260509073106 | 85 | 360 | 7.8 | 17.4 | 0.00 | 0.02 | 0.01 | 72 | 1010.4 |
| 20260509072600 | 85 | 103 | 10.4 | 15.6 | 0.00 | 0.02 | 0.01 | 71 | 1010.3 |
| 20260509072059 | 85 | 57 | 8.7 | 15.6 | 0.00 | 0.02 | 0.01 | 71 | 1010.2 |
| 20260509071559 | 85 | 76 | 9.6 | 15.6 | 0.00 | 0.02 | 0.01 | 70 | 1010.2 |
| 20260509071058 | 85 | 113 | 9.6 | 17.4 | 0.00 | 0.02 | 0.01 | 70 | 1010.1 |
| 20260509070556 | 85 | 111 | 10.4 | 17.4 | 0.00 | 0.02 | 0.01 | 71 | 1010.1 |
| 20260509070058 | 85 | 360 | 9.6 | 17.4 | 0.00 | 0.02 | 0.01 | 71 | 1010.2 |
| 20260509065557 | 85 | 98 | 11.3 | 17.4 | 0.00 | 0.02 | 0.01 | 69 | 1010.3 |
| 20260509065057 | 85 | 66 | 10.4 | 13.9 | 0.00 | 0.02 | 0.01 | 70 | 1010.3 |
| 20260509064618 | 86 | 93 | 7.8 | 14.8 | 0.00 | 0.02 | 0.01 | 70 | 1010.3 |
| 20260509064058 | 86 | 80 | 7.8 | 15.6 | 0.00 | 0.02 | 0.01 | 70 | 1010.2 |
| 20260509063558 | 87 | 114 | 7.8 | 16.5 | 0.00 | 0.02 | 0.01 | 68 | 1010.1 |
| 20260509063057 | 86 | 100 | 9.6 | 16.5 | 0.00 | 0.02 | 0.01 | 68 | 1010.1 |
| 20260509062558 | 87 | 70 | 7.8 | 15.6 | 0.00 | 0.02 | 0.01 | 68 | 1010.2 |
| 20260509062057 | 86 | 105 | 10.4 | 16.5 | 0.00 | 0.02 | 0.01 | 68 | 1010.2 |
| 20260509061556 | 87 | 98 | 9.6 | 18.2 | 0.00 | 0.02 | 0.01 | 68 | 1010.3 |
| 20260509061101 | 87 | 72 | 7.0 | 21.7 | 0.00 | 0.02 | 0.01 | 68 | 1010.2 |
| 20260509060557 | 86 | 100 | 12.2 | 21.7 | 0.00 | 0.02 | 0.01 | 69 | 1010.1 |
| 20260509060058 | 86 | 60 | 12.2 | 21.7 | 0.00 | 0.02 | 0.01 | 69 | 1010.1 |
| 20260509055557 | 86 | 86 | 14.8 | 21.7 | 0.00 | 0.02 | 0.01 | 68 | 1010.1 |
| 20260509055057 | 86 | 104 | 9.6 | 20.9 | 0.00 | 0.02 | 0.01 | 68 | 1010.0 |
| 20260509054602 | 86 | 42 | 9.6 | 21.7 | 0.00 | 0.02 | 0.01 | 69 | 1010.0 |
| 20260509054055 | 86 | 360 | 10.4 | 21.7 | 0.00 | 0.02 | 0.01 | 69 | 1010.1 |
| 20260509053558 | 87 | 360 | 11.3 | 21.7 | 0.00 | 0.02 | 0.01 | 67 | 1010.0 |
| 20260509053109 | 87 | 82 | 7.8 | 19.1 | 0.00 | 0.02 | 0.01 | 68 | 1010.1 |
| 20260509052558 | 87 | 90 | 11.3 | 21.7 | 0.00 | 0.02 | 0.01 | 68 | 1010.1 |
| 20260509052118 | 86 | 97 | 13.0 | 21.7 | 0.00 | 0.02 | 0.01 | 67 | 1010.2 |
| 20260509051559 | 86 | 74 | 9.6 | 19.1 | 0.00 | 0.02 | 0.01 | 68 | 1010.2 |
| 20260509051058 | 86 | 360 | 12.2 | 19.1 | 0.00 | 0.02 | 0.01 | 69 | 1010.3 |
| 20260509050601 | 86 | 94 | 12.2 | 24.3 | 0.00 | 0.02 | 0.01 | 69 | 1010.2 |
| 20260509050059 | 87 | 82 | 13.9 | 24.3 | 0.00 | 0.02 | 0.01 | 68 | 1010.2 |
| 20260509045557 | 87 | 88 | 13.9 | 19.1 | 0.00 | 0.02 | 0.01 | 68 | 1010.2 |
| 20260509045058 | 86 | 82 | 13.9 | 19.1 | 0.00 | 0.02 | 0.01 | 68 | 1010.2 |
| 20260509044557 | 87 | 109 | 10.4 | 18.2 | 0.00 | 0.02 | 0.01 | 66 | 1010.2 |
| 20260509044057 | 87 | 65 | 11.3 | 20.0 | 0.00 | 0.02 | 0.01 | 67 | 1010.2 |
| 20260509043556 | 86 | 96 | 13.9 | 20.0 | 0.00 | 0.02 | 0.01 | 68 | 1010.3 |
| 20260509043103 | 86 | 78 | 10.4 | 19.1 | 0.00 | 0.02 | 0.01 | 68 | 1010.3 |
| 20260509042558 | 86 | 124 | 13.0 | 20.9 | 0.00 | 0.02 | 0.01 | 68 | 1010.3 |
| 20260509042057 | 87 | 82 | 11.3 | 20.9 | 0.00 | 0.02 | 0.01 | 67 | 1010.3 |
| 20260509041620 | 88 | 99 | 10.4 | 19.1 | 0.00 | 0.02 | 0.01 | 66 | 1010.3 |
| 20260509041058 | 87 | 86 | 12.2 | 20.0 | 0.00 | 0.02 | 0.01 | 69 | 1010.3 |
| 20260509040557 | 87 | 85 | 13.0 | 23.5 | 0.00 | 0.02 | 0.01 | 68 | 1010.2 |
| 20260509040057 | 87 | 96 | 13.9 | 23.5 | 0.00 | 0.02 | 0.01 | 69 | 1010.4 |
| 20260509035557 | 87 | 73 | 14.8 | 23.5 | 0.00 | 0.02 | 0.01 | 68 | 1010.4 |
| 20260509035058 | 87 | 90 | 12.2 | 19.1 | 0.00 | 0.02 | 0.01 | 69 | 1010.5 |
| 20260509034558 | 87 | 98 | 11.3 | 20.9 | 0.00 | 0.02 | 0.01 | 68 | 1010.6 |
| 20260509034057 | 87 | 107 | 10.4 | 20.9 | 0.00 | 0.02 | 0.01 | 66 | 1010.7 |
| 20260509033557 | 87 | 117 | 13.0 | 20.0 | 0.00 | 0.02 | 0.01 | 67 | 1010.8 |
| 20260509033057 | 87 | 108 | 7.8 | 20.0 | 0.00 | 0.02 | 0.01 | 69 | 1010.8 |
| 20260509032557 | 86 | 72 | 10.4 | 20.0 | 0.00 | 0.02 | 0.01 | 69 | 1010.8 |
| 20260509032056 | 86 | 88 | 13.0 | 20.0 | 0.00 | 0.02 | 0.01 | 67 | 1010.8 |
| 20260509031558 | 87 | 56 | 13.0 | 22.6 | 0.00 | 0.02 | 0.01 | 66 | 1010.8 |
| 20260509031100 | 87 | 105 | 10.4 | 22.6 | 0.00 | 0.02 | 0.01 | 66 | 1010.8 |
| 20260509030558 | 87 | 114 | 10.4 | 19.1 | 0.00 | 0.02 | 0.01 | 66 | 1010.8 |
| 20260509030058 | 88 | 121 | 13.0 | 19.1 | 0.00 | 0.02 | 0.01 | 65 | 1010.9 |
| 20260509025559 | 89 | 117 | 7.8 | 18.2 | 0.00 | 0.02 | 0.01 | 64 | 1010.9 |
| 20260509025055 | 88 | 97 | 10.4 | 17.4 | 0.00 | 0.02 | 0.01 | 66 | 1010.9 |
| 20260509024600 | 88 | 75 | 8.7 | 17.4 | 0.00 | 0.02 | 0.01 | 67 | 1010.9 |
| 20260509024056 | 87 | 89 | 12.2 | 16.5 | 0.00 | 0.02 | 0.01 | 68 | 1011.0 |
| 20260509023558 | 87 | 88 | 9.6 | 16.5 | 0.00 | 0.02 | 0.01 | 68 | 1011.0 |
| 20260509023109 | 87 | 109 | 11.3 | 18.2 | 0.00 | 0.02 | 0.01 | 66 | 1011.2 |
| 20260509022601 | 87 | 116 | 10.4 | 20.9 | 0.00 | 0.02 | 0.01 | 65 | 1011.2 |
| 20260509022057 | 87 | 94 | 13.0 | 20.9 | 0.00 | 0.02 | 0.01 | 65 | 1011.4 |
| 20260509021559 | 87 | 112 | 10.4 | 20.0 | 0.00 | 0.02 | 0.01 | 67 | 1011.4 |
| 20260509021057 | 87 | 75 | 8.7 | 21.7 | 0.00 | 0.02 | 0.01 | 66 | 1011.4 |
| 20260509020556 | 87 | 64 | 13.0 | 21.7 | 0.00 | 0.02 | 0.01 | 68 | 1011.3 |
| 20260509020100 | 87 | 84 | 11.3 | 21.7 | 0.00 | 0.02 | 0.01 | 67 | 1011.3 |
| 20260509015556 | 87 | 113 | 10.4 | 17.4 | 0.00 | 0.02 | 0.01 | 67 | 1011.3 |
| 20260509015056 | 87 | 103 | 11.3 | 18.2 | 0.00 | 0.02 | 0.01 | 68 | 1011.4 |
| 20260509014556 | 87 | 78 | 12.2 | 18.2 | 0.00 | 0.02 | 0.01 | 67 | 1011.4 |
| 20260509014057 | 87 | 94 | 10.4 | 19.1 | 0.00 | 0.02 | 0.01 | 66 | 1011.5 |
| 20260509013558 | 87 | 116 | 13.0 | 20.9 | 0.00 | 0.02 | 0.01 | 67 | 1011.5 |
| 20260509013104 | 87 | 80 | 11.3 | 21.7 | 0.00 | 0.02 | 0.01 | 66 | 1011.5 |
| 20260509012557 | 87 | 72 | 13.9 | 22.6 | 0.00 | 0.02 | 0.01 | 66 | 1011.5 |
| 20260509012100 | 87 | 101 | 12.2 | 22.6 | 0.00 | 0.02 | 0.01 | 67 | 1011.5 |
| 20260509011600 | 87 | 71 | 12.2 | 22.6 | 0.00 | 0.02 | 0.01 | 68 | 1011.6 |
| 20260509011055 | 87 | 100 | 13.9 | 22.6 | 0.00 | 0.02 | 0.01 | 67 | 1011.4 |
| 20260509010556 | 87 | 90 | 11.3 | 20.9 | 0.00 | 0.02 | 0.01 | 66 | 1011.5 |
| 20260509010057 | 86 | 98 | 13.9 | 22.6 | 0.00 | 0.02 | 0.01 | 68 | 1011.4 |
| 20260509005557 | 87 | 94 | 12.2 | 22.6 | 0.00 | 0.02 | 0.01 | 69 | 1011.4 |
| 20260509005055 | 87 | 71 | 10.4 | 21.7 | 0.00 | 0.02 | 0.01 | 68 | 1011.4 |
| 20260509004558 | 86 | 74 | 12.2 | 20.9 | 0.00 | 0.02 | 0.01 | 69 | 1011.3 |
| 20260509004057 | 86 | 96 | 9.6 | 20.9 | 0.00 | 0.02 | 0.01 | 70 | 1011.4 |
| 20260509003558 | 86 | 107 | 13.9 | 22.6 | 0.00 | 0.02 | 0.01 | 70 | 1011.3 |
| 20260509003058 | 86 | 103 | 12.2 | 23.5 | 0.00 | 0.02 | 0.01 | 71 | 1011.4 |
| 20260509002600 | 86 | 109 | 13.0 | 23.5 | 0.00 | 0.02 | 0.01 | 69 | 1011.4 |
| 20260509002058 | 87 | 112 | 10.4 | 20.0 | 0.00 | 0.02 | 0.01 | 70 | 1011.5 |
| 20260509001559 | 86 | 115 | 13.0 | 20.0 | 0.00 | 0.02 | 0.01 | 70 | 1011.6 |
| 20260509001058 | 86 | 118 | 11.3 | 22.6 | 0.00 | 0.02 | 0.01 | 70 | 1011.5 |
| 20260509000600 | 85 | 71 | 13.0 | 22.6 | 0.00 | 0.02 | 0.01 | 72 | 1011.5 |
| 20260509000113 | 85 | 71 | 13.9 | 21.7 | 0.00 | 0.02 | 0.01 | 71 | 1011.5 |
| 20260508235557 | 85 | 78 | 11.3 | 20.9 | 0.00 | 0.02 | 0.01 | 71 | 1011.5 |
| 20260508235056 | 85 | 61 | 12.2 | 21.7 | 0.00 | 0.02 | 0.01 | 70 | 1011.5 |
| 20260508234559 | 86 | 74 | 12.2 | 21.7 | 0.00 | 0.02 | 0.01 | 69 | 1011.5 |
| 20260508234058 | 87 | 102 | 8.7 | 21.7 | 0.00 | 0.02 | 0.01 | 68 | 1011.5 |
| 20260508233555 | 87 | 107 | 12.2 | 18.2 | 0.00 | 0.02 | 0.01 | 67 | 1011.5 |
| 20260508233117 | 86 | 107 | 11.3 | 20.0 | 0.00 | 0.02 | 0.01 | 69 | 1011.6 |
| 20260508232555 | 86 | 80 | 13.0 | 22.6 | 0.00 | 0.02 | 0.01 | 69 | 1011.4 |
| 20260508232057 | 86 | 80 | 12.2 | 22.6 | 0.00 | 0.02 | 0.01 | 70 | 1011.4 |
| 20260508231556 | 86 | 60 | 13.9 | 24.3 | 0.00 | 0.02 | 0.01 | 70 | 1011.4 |
| 20260508231055 | 86 | 69 | 10.4 | 24.3 | 0.00 | 0.02 | 0.01 | 70 | 1011.4 |
| 20260508230556 | 85 | 94 | 15.6 | 23.5 | 0.00 | 0.02 | 0.01 | 69 | 1011.4 |
| 20260508230100 | 85 | 62 | 11.3 | 20.0 | 0.00 | 0.02 | 0.01 | 71 | 1011.5 |
| 20260508225556 | 85 | 108 | 13.0 | 24.3 | 0.00 | 0.02 | 0.01 | 72 | 1011.5 |
| 20260508225056 | 85 | 116 | 12.2 | 24.3 | 0.00 | 0.02 | 0.01 | 71 | 1011.5 |
| 20260508224641 | 85 | 114 | 13.9 | 23.5 | 0.00 | 0.02 | 0.01 | 72 | 1011.5 |
| 20260508224055 | 84 | 103 | 12.2 | 20.9 | 0.00 | 0.02 | 0.01 | 73 | 1011.4 |
| 20260508223603 | 84 | 73 | 11.3 | 20.9 | 0.00 | 0.02 | 0.01 | 74 | 1011.4 |
| 20260508223058 | 84 | 84 | 10.4 | 20.0 | 0.00 | 0.02 | 0.01 | 75 | 1011.4 |
| 20260508222557 | 83 | 112 | 12.2 | 24.3 | 0.00 | 0.02 | 0.01 | 75 | 1011.5 |
| 20260508222058 | 84 | 81 | 10.4 | 24.3 | 0.00 | 0.02 | 0.01 | 74 | 1011.4 |
| 20260508221558 | 84 | 47 | 12.2 | 20.9 | 0.00 | 0.02 | 0.01 | 73 | 1011.4 |
| 20260508221058 | 84 | 106 | 9.6 | 19.1 | 0.00 | 0.02 | 0.01 | 74 | 1011.4 |
| 20260508220557 | 83 | 113 | 10.4 | 19.1 | 0.00 | 0.02 | 0.01 | 75 | 1011.4 |
| 20260508220058 | 83 | 110 | 12.2 | 19.1 | 0.00 | 0.02 | 0.01 | 75 | 1011.3 |
| 20260508215556 | 83 | 94 | 13.0 | 20.0 | 0.00 | 0.02 | 0.01 | 75 | 1011.2 |
| 20260508215101 | 83 | 65 | 8.7 | 22.6 | 0.00 | 0.02 | 0.01 | 76 | 1011.3 |
| 20260508214558 | 83 | 55 | 12.2 | 22.6 | 0.00 | 0.02 | 0.01 | 75 | 1011.3 |
| 20260508214057 | 83 | 360 | 9.6 | 15.6 | 0.00 | 0.02 | 0.01 | 77 | 1011.3 |
| 20260508213556 | 83 | 70 | 9.6 | 17.4 | 0.00 | 0.02 | 0.01 | 76 | 1011.3 |
| 20260508213057 | 83 | 360 | 9.6 | 17.4 | 0.00 | 0.02 | 0.01 | 75 | 1011.4 |
| 20260508212558 | 83 | 360 | 11.3 | 17.4 | 0.00 | 0.02 | 0.01 | 74 | 1011.4 |
| 20260508212057 | 83 | 69 | 8.7 | 16.5 | 0.00 | 0.02 | 0.01 | 75 | 1011.3 |
| 20260508211559 | 83 | 101 | 8.7 | 16.5 | 0.00 | 0.02 | 0.01 | 76 | 1011.3 |
| 20260508211058 | 82 | 77 | 8.7 | 16.5 | 0.00 | 0.02 | 0.01 | 77 | 1011.1 |
| 20260508210557 | 82 | 90 | 7.8 | 14.8 | 0.00 | 0.02 | 0.01 | 78 | 1011.1 |
| 20260508210058 | 82 | 108 | 7.0 | 15.6 | 0.00 | 0.02 | 0.01 | 78 | 1011.2 |
| 20260508205556 | 82 | 360 | 7.0 | 15.6 | 0.00 | 0.02 | 0.01 | 78 | 1011.2 |
| 20260508205056 | 82 | 83 | 8.7 | 15.6 | 0.00 | 0.02 | 0.01 | 78 | 1010.9 |
| 20260508204558 | 82 | 360 | 9.6 | 14.8 | 0.00 | 0.02 | 0.01 | 78 | 1011.0 |
| 20260508204058 | 82 | 61 | 9.6 | 14.8 | 0.00 | 0.02 | 0.01 | 78 | 1011.0 |
| 20260508203558 | 82 | 101 | 7.8 | 13.9 | 0.00 | 0.02 | 0.01 | 78 | 1011.1 |
| 20260508203057 | 82 | 136 | 7.0 | 15.6 | 0.00 | 0.02 | 0.01 | 79 | 1010.9 |
| 20260508202558 | 82 | 360 | 9.6 | 15.6 | 0.00 | 0.02 | 0.01 | 79 | 1010.9 |
| 20260508202059 | 82 | 75 | 7.0 | 13.9 | 0.00 | 0.02 | 0.01 | 79 | 1010.8 |
| 20260508201558 | 81 | 66 | 7.8 | 13.9 | 0.00 | 0.02 | 0.01 | 79 | 1010.8 |
| 20260508201056 | 81 | 76 | 7.0 | 13.9 | 0.00 | 0.02 | 0.01 | 79 | 1010.7 |
| 20260508200556 | 81 | 38 | 7.0 | 13.9 | 0.00 | 0.02 | 0.01 | 79 | 1010.7 |
| 20260508200111 | 81 | 81 | 7.8 | 14.8 | 0.00 | 0.02 | 0.01 | 79 | 1010.6 |
| 20260508195558 | 81 | 360 | 9.6 | 14.8 | 0.00 | 0.02 | 0.01 | 79 | 1010.5 |
| 20260508195100 | 81 | 90 | 6.1 | 16.5 | 0.00 | 0.02 | 0.01 | 80 | 1010.4 |
| 20260508194557 | 81 | 73 | 9.6 | 16.5 | 0.00 | 0.02 | 0.01 | 80 | 1010.5 |
| 20260508194057 | 81 | 95 | 7.8 | 14.8 | 0.00 | 0.02 | 0.01 | 81 | 1010.4 |
| 20260508193557 | 80 | 360 | 7.0 | 12.2 | 0.00 | 0.02 | 0.01 | 81 | 1010.5 |
| 20260508193150 | 80 | 88 | 7.0 | 12.2 | 0.00 | 0.02 | 0.01 | 80 | 1010.3 |
| 20260508192557 | 80 | 102 | 5.2 | 12.2 | 0.00 | 0.02 | 0.01 | 80 | 1010.3 |
| 20260508192059 | 80 | 85 | 7.8 | 12.2 | 0.00 | 0.02 | 0.01 | 80 | 1010.4 |
| 20260508191603 | 80 | 107 | 7.0 | 11.3 | 0.00 | 0.02 | 0.01 | 79 | 1010.3 |
| 20260508191056 | 80 | 96 | 8.7 | 13.9 | 0.00 | 0.02 | 0.01 | 79 | 1010.3 |
| 20260508190556 | 80 | 360 | 7.8 | 16.5 | 0.00 | 0.02 | 0.01 | 79 | 1010.3 |
| 20260508190057 | 80 | 92 | 6.1 | 16.5 | 0.00 | 0.02 | 0.01 | 79 | 1010.3 |